Location: Wells
(51.2093°N, 2.6446°W)
Time: 06:07:44
(UTC+01:00)

PCSat - Pass Details

Date: 18 March 2026
Orbit: 780 x 790 km, 67.1° (Epoch: 13 April)

Event Time Altitude Azimuth Distance (km) Brightness Sun altitude
Exits shadow 22:23:14 10° 38° (NE) 2,351 12.2 -33.9°
Drops below altitude 10° 22:23:18 10° 38° (NE) 2,377 12.2 -33.9°
Sets 22:25:41 0° 38° (NE) 3,297 13.0 -34.1°
